User: anonymous   Login
Location: Unspecified
(0.0000°N, 0.0000°E)
Time: 01:09:43
(UTC+00:00)
Language:

EDUSAT - Orbit

View from above orbital plane
View from above orbital plane
View from above satellite
View from above satellite

Ground track
Ground track

The orbit data is extracted from the following two-line orbital elements,

1 37788U 11044A   21023.46075299  .00000092  00000-0  23800-4 0  9991
2 37788  98.4112 192.7789 0036987 245.1078 171.2202 14.71064296506380
Epoch (UTC): 23 January 2021 11:03:29
Eccentricity: 0.0036987
inclination: 98.4112°
perigee height: 631 km
apogee height: 684 km
right ascension of ascending node: 192.7789°
argument of perigee: 245.1078°
revolutions per day: 14.71064296
mean anomaly at epoch: 171.2202°
orbit number at epoch: 50638

The dashed part of the orbit path shows where the satellite is in the earth's shadow,  

DLR